This demonstration page uses our WeatherBlox Daily Observations layout. Learn more.

Left ArrowRight Arrow

Hourly Observations for May 29, 2021

Temp ( °F °C ) Dew Point ( °F °C ) Humidity (%) Winds ( mph kmh ) Pressure ( in mb ) Visibility ( mi km ) Precip ( " mm )
12:07 am 00:07 Mostly Cloudy 68 20 67 19.4 96 96 SW 5 7 29.85 1011 10 16 0.00 0.00
12:53 am 00:53 Cloudy 68 20 67 19.4 96 96 SSW 3 6 29.83 1010 10 16 0.00 0.00
1:53 am 01:53 Cloudy 68 20 66 18.9 93 93 SW 3 6 29.81 1010 10 16 0.00 0.00
2:53 am 02:53 Cloudy 68 20 66 18.9 93 93 SW 3 6 29.81 1010 10 16 0.00 0.00
3:38 am 03:38 Cloudy 68 20 66 18.9 93 93 SW 3 6 29.82 1010 10 16 0.00 0.00
3:53 am 03:53 Cloudy 68 20 66 18.9 93 93 WSW 3 6 29.81 1009 10 16 0.00 0.00
4:13 am 04:13 Cloudy 68 20 66 18.9 93 93 W 5 7 29.82 1010 10 16 0.00 0.00
4:20 am 04:20 Mostly Cloudy 68 20 66 18.9 93 93 Calm 29.82 1010 10 16 0.00 0.00
4:32 am 04:32 Mostly Cloudy 68 20 66 18.9 93 93 WSW 5 7 29.83 1010 10 16 0.00 0.00
4:53 am 04:53 Mostly Cloudy 68 20 66 18.9 93 93 W 5 7 29.82 1010 10 16 0.00 0.00
5:08 am 05:08 Cloudy 68 20 66 18.9 93 93 WNW 3 6 29.83 1010 10 16 0.00 0.00
5:20 am 05:20 Mostly Cloudy 68 20 65 18.3 90 90 W 3 6 29.83 1010 10 16 0.00 0.00
5:29 am 05:29 Cloudy 68 20 65 18.3 90 90 WNW 3 6 29.83 1010 10 16 0.00 0.00
5:53 am 05:53 Partly Cloudy 67 19.4 64 17.8 91 91 WNW 7 11 29.83 1010 10 16 0.00 0.00
6:53 am 06:53 Mostly Cloudy 65 18.3 63 17.2 93 93 Calm 29.83 1010 10 16 0.00 0.00
7:12 am 07:12 Cloudy 65 18.3 62 16.7 90 90 NW 5 7 29.85 1011 10 16 0.00 0.00
7:36 am 07:36 Cloudy 65 18.3 62 16.7 90 90 NW 8 13 29.85 1011 10 16 0.00 0.00
7:53 am 07:53 Cloudy 65 18.3 61 16.1 87 87 NW 9 15 29.84 1011 10 16 0.00 0.00
8:08 am 08:08 Cloudy 65 18.3 61 16.1 87 87 WNW 8 13 29.86 1011 10 16 0.00 0.00
8:44 am 08:44 Cloudy 65 18.3 60 15.6 84 84 NW 7 11 29.87 1012 10 16 0.00 0.00
8:53 am 08:53 Cloudy 65 18.3 60 15.6 84 84 W 7 11 29.87 1011 10 16 0.00 0.00
9:53 am 09:53 Cloudy 67 19.4 58 14.4 73 73 WNW 12 19 29.90 1012 10 16 0.00 0.00
10:16 am 10:16 Partly Cloudy 67 19.4 56 13.3 68 68 NW 9 15 29.90 1013 10 16 0.00 0.00
10:53 am 10:53 Mostly Sunny 67 19.4 54 12.2 63 63 NW 9 15 29.90 1012 10 16 0.00 0.00
11:53 am 11:53 Partly Cloudy 69 20.6 56 13.3 63 63 W 8 13 29.91 1013 10 16 0.00 0.00
12:53 pm 12:53 Mostly Cloudy 70 21.1 54 12.2 57 57 W 14 22 29.91 1013 10 16 0.00 0.00
1:53 pm 13:53 Mostly Cloudy 70 21.1 52 11.1 53 53 NW 12 19 29.91 1013 10 16 0.00 0.00
2:53 pm 14:53 Partly Cloudy 72 22.2 52 11.1 50 50 NW 15 24 29.90 1013 10 16 0.00 0.00
3:53 pm 15:53 Partly Cloudy 73 22.8 52 11.1 48 48 NNW 10 17 29.89 1012 10 16 0.00 0.00
4:53 pm 16:53 Mostly Cloudy 71 21.7 52 11.1 51 51 NNW 7 11 29.89 1012 10 16 0.00 0.00
5:53 pm 17:53 Mostly Cloudy 71 21.7 52 11.1 51 51 NW 10 17 29.90 1013 10 16 0.00 0.00
6:53 pm 18:53 Mostly Cloudy 71 21.7 51 10.6 49 49 W 9 15 29.91 1013 10 16 0.00 0.00
7:53 pm 19:53 Cloudy 69 20.6 51 10.6 53 53 NW 14 22 29.93 1014 10 16 0.00 0.00
8:53 pm 20:53 Mostly Cloudy 67 19.4 52 11.1 59 59 NW 9 15 29.95 1014 10 16 0.00 0.00
9:53 pm 21:53 Partly Cloudy 65 18.3 51 10.6 61 61 NW 9 15 29.97 1015 10 16 0.00 0.00
10:53 pm 22:53 Mostly Cloudy 63 17.2 51 10.6 65 65 N 14 22 29.99 1016 10 16 0.00 0.00
11:53 pm 23:53 Clear 60 15.6 49 9.4 67 67 NNW 8 13 30.00 1016 10 16 0.00 0.00

Powered by AerisWeather